TimeMDT,TemperatureF,Dew PointF,Humidity,Sea Level PressureIn,VisibilityMPH,Wind Direction,Wind SpeedMPH,Gust SpeedMPH,PrecipitationIn,Events,Conditions,WindDirDegrees,DateUTC
12:53 AM,59.0,12.9,16,29.93,10.0,NW,10.4,-,N/A,,Clear,320,2013-03-30 06:53:00
1:53 AM,57.0,12.9,18,29.93,10.0,NW,9.2,-,N/A,,Clear,310,2013-03-30 07:53:00
2:53 AM,48.9,10.9,22,29.96,10.0,SSW,6.9,-,N/A,,Clear,200,2013-03-30 08:53:00
3:53 AM,48.9,12.0,23,29.96,10.0,SSW,6.9,-,N/A,,Clear,210,2013-03-30 09:53:00
4:53 AM,46.9,12.0,24,29.96,10.0,West,6.9,-,N/A,,Clear,280,2013-03-30 10:53:00
5:53 AM,46.9,10.9,23,29.98,10.0,SSW,4.6,-,N/A,,Clear,200,2013-03-30 11:53:00
6:53 AM,46.9,12.0,24,29.99,10.0,WSW,6.9,-,N/A,,Clear,240,2013-03-30 12:53:00
7:53 AM,46.9,14.0,27,30.02,10.0,SW,4.6,-,N/A,,Clear,220,2013-03-30 13:53:00
8:53 AM,51.1,15.1,24,30.03,10.0,Calm,Calm,-,N/A,,Clear,0,2013-03-30 14:53:00
9:53 AM,55.9,14.0,19,30.03,10.0,Calm,Calm,-,N/A,,Clear,0,2013-03-30 15:53:00
10:53 AM,66.0,16.0,15,30.00,10.0,Calm,Calm,-,N/A,,Clear,0,2013-03-30 16:53:00
11:53 AM,71.1,17.1,13,29.98,10.0,Variable,3.5,-,N/A,,Clear,0,2013-03-30 17:53:00
12:53 PM,77.0,16.0,10,29.94,10.0,West,6.9,-,N/A,,Clear,280,2013-03-30 18:53:00
1:53 PM,77.0,17.1,10,29.91,10.0,West,11.5,-,N/A,,Clear,270,2013-03-30 19:53:00
2:53 PM,78.1,16.0,10,29.89,10.0,WSW,12.7,19.6,N/A,,Clear,250,2013-03-30 20:53:00
3:53 PM,78.1,17.1,10,29.87,10.0,West,16.1,20.7,N/A,,Clear,260,2013-03-30 21:53:00
4:53 PM,77.0,15.1,10,29.86,10.0,WNW,15.0,21.9,N/A,,Partly Cloudy,290,2013-03-30 22:53:00
5:53 PM,75.9,17.1,11,29.86,10.0,WSW,12.7,18.4,N/A,,Clear,250,2013-03-30 23:53:00
6:53 PM,73.0,19.0,13,29.88,10.0,West,18.4,25.3,N/A,,Scattered Clouds,280,2013-03-31 00:53:00
7:53 PM,71.1,18.0,13,29.90,10.0,WNW,12.7,-,N/A,,Clear,300,2013-03-31 01:53:00
8:53 PM,66.0,17.1,15,29.89,10.0,NW,8.1,-,N/A,,Clear,320,2013-03-31 02:53:00
9:53 PM,62.1,15.1,16,29.90,10.0,NW,8.1,-,N/A,,Clear,320,2013-03-31 03:53:00
10:53 PM,57.0,16.0,20,29.90,10.0,NW,5.8,-,N/A,,Clear,310,2013-03-31 04:53:00
11:53 PM,54.0,16.0,22,29.89,10.0,WNW,6.9,-,N/A,,Clear,290,2013-03-31 05:53:00